| time (UTC) | temp F | wind direction | speed MPH | gust MPH | rain 1hr in | rain 24hr in | rain mn in | humidity % | barometer mb |
| 20260503202003 | 69 | 250 | 6.0 | 10.0 | 0.00 | 0.00 | 0.00 | 38 | 1004.0 |
| 20260503201503 | 68 | 249 | 5.0 | 12.0 | 0.00 | 0.00 | 0.00 | 37 | 1004.1 |
| 20260503201004 | 68 | 259 | 6.0 | 9.0 | 0.00 | 0.00 | 0.00 | 38 | 1004.3 |
| 20260503200504 | 68 | 229 | 7.0 | 13.0 | 0.00 | 0.00 | 0.00 | 37 | 1004.5 |
| 20260503195503 | 67 | 213 | 7.0 | 14.0 | 0.00 | 0.00 | 0.00 | 39 | 1004.5 |
| 20260503195004 | 67 | 210 | 6.0 | 12.0 | 0.00 | 0.00 | 0.00 | 38 | 1004.6 |
| 20260503194504 | 68 | 252 | 7.0 | 9.0 | 0.00 | 0.00 | 0.00 | 38 | 1004.7 |
| 20260503194004 | 68 | 245 | 6.0 | 13.0 | 0.00 | 0.00 | 0.00 | 40 | 1004.8 |
| 20260503193503 | 68 | 227 | 5.0 | 14.0 | 0.00 | 0.00 | 0.00 | 38 | 1004.9 |
| 20260503192504 | 67 | 260 | 5.0 | 12.0 | 0.00 | 0.00 | 0.00 | 38 | 1005.0 |
| 20260503192004 | 67 | 252 | 11.0 | 20.0 | 0.00 | 0.00 | 0.00 | 38 | 1005.1 |
| 20260503191503 | 67 | 255 | 5.0 | 13.0 | 0.00 | 0.00 | 0.00 | 40 | 1005.1 |
| 20260503191003 | 66 | 239 | 7.0 | 16.0 | 0.00 | 0.00 | 0.00 | 40 | 1005.1 |
| 20260503190503 | 66 | 214 | 8.0 | 14.0 | 0.00 | 0.00 | 0.00 | 37 | 1005.1 |
| 20260503190004 | 67 | 235 | 5.0 | 17.0 | 0.00 | 0.00 | 0.00 | 39 | 1005.2 |
| 20260503185503 | 66 | 238 | 8.0 | 17.0 | 0.00 | 0.00 | 0.00 | 40 | 1005.2 |
| 20260503185004 | 66 | 254 | 9.0 | 18.0 | 0.00 | 0.00 | 0.00 | 39 | 1005.4 |
| 20260503184503 | 66 | 237 | 7.0 | 16.0 | 0.00 | 0.00 | 0.00 | 39 | 1005.3 |
| 20260503184004 | 66 | 236 | 7.0 | 13.0 | 0.00 | 0.00 | 0.00 | 39 | 1005.3 |
| 20260503183504 | 66 | 219 | 8.0 | 17.0 | 0.00 | 0.00 | 0.00 | 39 | 1005.4 |
| 20260503183004 | 66 | 232 | 6.0 | 14.0 | 0.00 | 0.00 | 0.00 | 40 | 1005.3 |
| 20260503182505 | 66 | 252 | 9.0 | 18.0 | 0.00 | 0.00 | 0.00 | 39 | 1005.4 |
| 20260503182006 | 66 | 226 | 7.0 | 14.0 | 0.00 | 0.00 | 0.00 | 41 | 1005.5 |
| 20260503181005 | 65 | 232 | 7.0 | 16.0 | 0.00 | 0.00 | 0.00 | 41 | 1005.6 |
| 20260503180505 | 64 | 230 | 7.0 | 13.0 | 0.00 | 0.00 | 0.00 | 43 | 1005.6 |
| 20260503180004 | 64 | 232 | 9.0 | 22.0 | 0.00 | 0.00 | 0.00 | 46 | 1005.7 |
| 20260503175505 | 64 | 203 | 9.0 | 22.0 | 0.00 | 0.00 | 0.00 | 43 | 1005.8 |
| 20260503175005 | 64 | 227 | 6.0 | 14.0 | 0.00 | 0.00 | 0.00 | 45 | 1005.9 |
| 20260503174505 | 63 | 208 | 7.0 | 15.0 | 0.00 | 0.00 | 0.00 | 45 | 1005.9 |
| 20260503174004 | 63 | 234 | 7.0 | 15.0 | 0.00 | 0.00 | 0.00 | 44 | 1006.0 |
| 20260503173504 | 63 | 241 | 8.0 | 15.0 | 0.00 | 0.00 | 0.00 | 45 | 1006.0 |
| 20260503173005 | 63 | 207 | 7.0 | 13.0 | 0.00 | 0.00 | 0.00 | 44 | 1006.2 |
| 20260503172505 | 62 | 223 | 10.0 | 18.0 | 0.00 | 0.00 | 0.00 | 42 | 1006.3 |
| 20260503172004 | 62 | 247 | 10.0 | 24.0 | 0.00 | 0.00 | 0.00 | 44 | 1006.3 |
| 20260503171504 | 62 | 210 | 10.0 | 21.0 | 0.00 | 0.00 | 0.00 | 42 | 1006.4 |
| 20260503171005 | 63 | 215 | 9.0 | 18.0 | 0.00 | 0.00 | 0.00 | 42 | 1006.5 |
| 20260503170505 | 63 | 238 | 9.0 | 17.0 | 0.00 | 0.00 | 0.00 | 42 | 1006.5 |
| 20260503131004 | 52 | 232 | 6.0 | 12.0 | 0.00 | 0.00 | 0.00 | 64 | 1009.6 |
| 20260503130504 | 52 | 237 | 4.0 | 8.0 | 0.00 | 0.00 | 0.00 | 62 | 1009.7 |
| 20260503110505 | 49 | 239 | 2.0 | 3.0 | 0.00 | 0.00 | 0.00 | 56 | 1009.8 |
| 20260503090504 | 49 | 217 | 3.0 | 6.0 | 0.00 | 0.00 | 0.00 | 54 | 1010.9 |
| 20260503081505 | 48 | 231 | 3.0 | 6.0 | 0.00 | 0.00 | 0.00 | 54 | 1011.1 |
| 20260503080504 | 48 | 211 | 5.0 | 7.0 | 0.00 | 0.00 | 0.00 | 53 | 1011.0 |
| 20260503072504 | 48 | 233 | 4.0 | 8.0 | 0.00 | 0.00 | 0.00 | 52 | 1011.3 |
| 20260503072004 | 48 | 211 | 3.0 | 8.0 | 0.00 | 0.00 | 0.00 | 52 | 1011.3 |
| 20260503071504 | 48 | 218 | 5.0 | 8.0 | 0.00 | 0.00 | 0.00 | 51 | 1011.3 |
| 20260503071004 | 48 | 220 | 3.0 | 6.0 | 0.00 | 0.00 | 0.00 | 52 | 1011.4 |
| 20260503055004 | 49 | 222 | 4.0 | 8.0 | 0.00 | 0.00 | 0.00 | 48 | 1012.0 |
| 20260503054503 | 49 | 217 | 3.0 | 7.0 | 0.00 | 0.00 | 0.00 | 48 | 1012.0 |
| 20260503054004 | 49 | 226 | 3.0 | 7.0 | 0.00 | 0.00 | 0.00 | 48 | 1012.1 |
| 20260503053004 | 49 | 227 | 4.0 | 8.0 | 0.00 | 0.00 | 0.00 | 48 | 1012.1 |
| 20260503052504 | 49 | 228 | 2.0 | 5.0 | 0.00 | 0.00 | 0.00 | 49 | 1012.2 |
| 20260503052005 | 49 | 228 | 3.0 | 6.0 | 0.00 | 0.00 | 0.00 | 48 | 1012.2 |
| 20260503051005 | 49 | 221 | 3.0 | 7.0 | 0.00 | 0.00 | 0.00 | 49 | 1012.3 |
| 20260503050504 | 49 | 214 | 3.0 | 6.0 | 0.00 | 0.00 | 0.00 | 48 | 1012.4 |
| 20260503050005 | 49 | 209 | 5.0 | 6.0 | 0.00 | 0.00 | 0.00 | 48 | 1012.4 |
| 20260503045504 | 50 | 214 | 3.0 | 7.0 | 0.00 | 0.00 | 0.00 | 48 | 1012.4 |
| 20260503045004 | 50 | 221 | 3.0 | 6.0 | 0.00 | 0.00 | 0.00 | 48 | 1012.4 |
| 20260503044505 | 50 | 226 | 4.0 | 7.0 | 0.00 | 0.00 | 0.00 | 48 | 1012.5 |
| 20260503044003 | 50 | 217 | 4.0 | 7.0 | 0.00 | 0.00 | 0.00 | 48 | 1012.5 |
| 20260503043004 | 50 | 224 | 3.0 | 5.0 | 0.00 | 0.00 | 0.00 | 48 | 1012.6 |
| 20260503042504 | 50 | 223 | 3.0 | 6.0 | 0.00 | 0.00 | 0.00 | 48 | 1012.6 |
| 20260503042004 | 50 | 214 | 3.0 | 6.0 | 0.00 | 0.00 | 0.00 | 48 | 1012.6 |
| 20260503040004 | 50 | 222 | 3.0 | 5.0 | 0.00 | 0.00 | 0.00 | 48 | 1012.8 |
| 20260503035503 | 50 | 227 | 2.0 | 3.0 | 0.00 | 0.00 | 0.00 | 48 | 1012.8 |
| 20260503035004 | 50 | 225 | 2.0 | 5.0 | 0.00 | 0.00 | 0.00 | 48 | 1012.8 |
| 20260503034004 | 50 | 238 | 2.0 | 3.0 | 0.00 | 0.00 | 0.00 | 48 | 1012.9 |
| 20260503033503 | 50 | 229 | 2.0 | 5.0 | 0.00 | 0.00 | 0.00 | 47 | 1012.9 |
| 20260503032504 | 50 | 212 | 2.0 | 6.0 | 0.00 | 0.00 | 0.00 | 47 | 1013.1 |
| 20260503032004 | 50 | 227 | 2.0 | 3.0 | 0.00 | 0.00 | 0.00 | 47 | 1013.1 |
| 20260503031504 | 50 | 230 | 3.0 | 6.0 | 0.00 | 0.00 | 0.00 | 47 | 1013.1 |
| 20260503031003 | 50 | 238 | 2.0 | 6.0 | 0.00 | 0.00 | 0.00 | 47 | 1013.1 |
| 20260503030504 | 50 | 239 | 2.0 | 5.0 | 0.00 | 0.00 | 0.00 | 47 | 1013.1 |
| 20260503025504 | 50 | 226 | 2.0 | 3.0 | 0.00 | 0.00 | 0.00 | 48 | 1013.2 |
| 20260503025003 | 49 | 241 | 2.0 | 5.0 | 0.00 | 0.00 | 0.00 | 49 | 1013.3 |
| 20260503024503 | 49 | 222 | 2.0 | 5.0 | 0.00 | 0.00 | 0.00 | 50 | 1013.3 |
| 20260503024004 | 48 | 209 | 2.0 | 5.0 | 0.00 | 0.00 | 0.00 | 52 | 1013.2 |
| 20260503023504 | 48 | 201 | 2.0 | 2.0 | 0.00 | 0.00 | 0.00 | 55 | 1013.3 |
| 20260503023004 | 48 | 203 | 1.0 | 2.0 | 0.00 | 0.00 | 0.00 | 55 | 1013.3 |
| 20260503022504 | 48 | 211 | 1.0 | 2.0 | 0.00 | 0.00 | 0.00 | 54 | 1013.3 |
| 20260503021504 | 47 | 230 | 2.0 | 5.0 | 0.00 | 0.00 | 0.00 | 55 | 1013.2 |
| 20260503021004 | 47 | 257 | 0.0 | 0.0 | 0.00 | 0.00 | 0.00 | 55 | 1013.2 |
| 20260503020004 | 48 | 257 | 0.0 | 0.0 | 0.00 | 0.00 | 0.00 | 53 | 1013.2 |
| 20260503015004 | 49 | 257 | 0.0 | 0.0 | 0.00 | 0.00 | 0.00 | 51 | 1013.1 |
| 20260503014504 | 49 | 257 | 0.0 | 0.0 | 0.00 | 0.00 | 0.00 | 50 | 1013.0 |
| 20260503013504 | 50 | 257 | 0.0 | 0.0 | 0.00 | 0.00 | 0.00 | 47 | 1013.0 |
| 20260503013004 | 51 | 257 | 0.0 | 0.0 | 0.00 | 0.00 | 0.00 | 47 | 1013.0 |
| 20260503012504 | 51 | 257 | 0.0 | 1.0 | 0.00 | 0.00 | 0.00 | 46 | 1012.9 |
| 20260503012004 | 52 | 206 | 0.0 | 0.0 | 0.00 | 0.00 | 0.00 | 45 | 1013.0 |
| 20260503011004 | 53 | 206 | 1.0 | 2.0 | 0.00 | 0.00 | 0.00 | 42 | 1012.9 |
| 20260503010504 | 54 | 248 | 0.0 | 2.0 | 0.00 | 0.00 | 0.00 | 43 | 1012.9 |
| 20260503010004 | 54 | 240 | 0.0 | 0.0 | 0.00 | 0.00 | 0.00 | 41 | 1012.9 |
| 20260503005503 | 54 | 240 | 0.0 | 2.0 | 0.00 | 0.00 | 0.00 | 40 | 1012.9 |
| 20260503005004 | 55 | 252 | 2.0 | 3.0 | 0.00 | 0.00 | 0.00 | 40 | 1012.9 |
| 20260503004504 | 56 | 260 | 2.0 | 5.0 | 0.00 | 0.00 | 0.00 | 40 | 1012.9 |
| 20260503004004 | 56 | 236 | 1.0 | 5.0 | 0.00 | 0.00 | 0.00 | 38 | 1012.9 |
| 20260503003503 | 56 | 263 | 2.0 | 5.0 | 0.00 | 0.00 | 0.00 | 37 | 1012.9 |
| 20260503003004 | 57 | 256 | 2.0 | 7.0 | 0.00 | 0.00 | 0.00 | 36 | 1012.9 |
| 20260503002504 | 57 | 233 | 2.0 | 5.0 | 0.00 | 0.00 | 0.00 | 35 | 1012.9 |
| 20260503002004 | 57 | 251 | 2.0 | 7.0 | 0.00 | 0.00 | 0.00 | 35 | 1013.0 |
| 20260503001504 | 57 | 242 | 4.0 | 7.0 | 0.00 | 0.00 | 0.00 | 35 | 1013.0 |
| 20260503001004 | 58 | 262 | 4.0 | 8.0 | 0.00 | 0.00 | 0.00 | 34 | 1013.0 |
| 20260503000503 | 58 | 272 | 3.0 | 8.0 | 0.00 | 0.00 | 0.00 | 34 | 1013.1 |
| 20260502235504 | 58 | 267 | 3.0 | 7.0 | 0.00 | 0.00 | 0.00 | 34 | 1013.2 |
| 20260502235004 | 58 | 253 | 4.0 | 7.0 | 0.00 | 0.00 | 0.00 | 32 | 1013.3 |
| 20260502234003 | 58 | 251 | 3.0 | 7.0 | 0.00 | 0.00 | 0.00 | 32 | 1013.5 |
| 20260502233004 | 58 | 221 | 3.0 | 9.0 | 0.00 | 0.00 | 0.00 | 33 | 1013.5 |
| 20260502232504 | 58 | 279 | 4.0 | 7.0 | 0.00 | 0.00 | 0.00 | 34 | 1013.5 |
| 20260502232004 | 58 | 277 | 4.0 | 7.0 | 0.00 | 0.00 | 0.00 | 32 | 1013.4 |
| 20260502231503 | 59 | 254 | 4.0 | 8.0 | 0.00 | 0.00 | 0.00 | 31 | 1013.5 |
| 20260502231004 | 59 | 267 | 4.0 | 8.0 | 0.00 | 0.00 | 0.00 | 33 | 1013.6 |
| 20260502230504 | 59 | 261 | 3.0 | 9.0 | 0.00 | 0.00 | 0.00 | 33 | 1013.6 |
| 20260502225503 | 59 | 253 | 5.0 | 9.0 | 0.00 | 0.00 | 0.00 | 34 | 1013.6 |
| 20260502224504 | 58 | 266 | 3.0 | 7.0 | 0.00 | 0.00 | 0.00 | 33 | 1013.7 |
| 20260502224004 | 59 | 175 | 1.0 | 7.0 | 0.00 | 0.00 | 0.00 | 33 | 1013.8 |
| 20260502223003 | 59 | 259 | 5.0 | 8.0 | 0.00 | 0.00 | 0.00 | 29 | 1013.8 |
| 20260502221003 | 59 | 257 | 6.0 | 13.0 | 0.00 | 0.00 | 0.00 | 30 | 1014.0 |
| 20260502220503 | 60 | 239 | 6.0 | 13.0 | 0.00 | 0.00 | 0.00 | 29 | 1014.1 |
| 20260502220004 | 59 | 231 | 5.0 | 16.0 | 0.00 | 0.00 | 0.00 | 29 | 1014.2 |
| 20260502215504 | 59 | 241 | 5.0 | 9.0 | 0.00 | 0.00 | 0.00 | 31 | 1014.2 |
| 20260502214503 | 59 | 258 | 3.0 | 7.0 | 0.00 | 0.00 | 0.00 | 32 | 1014.3 |
| 20260502213504 | 60 | 266 | 6.0 | 13.0 | 0.00 | 0.00 | 0.00 | 30 | 1014.2 |
| 20260502213003 | 60 | 272 | 4.0 | 7.0 | 0.00 | 0.00 | 0.00 | 32 | 1014.4 |
| 20260502212503 | 60 | 284 | 6.0 | 10.0 | 0.00 | 0.00 | 0.00 | 32 | 1014.3 |
| 20260502212004 | 60 | 285 | 5.0 | 9.0 | 0.00 | 0.00 | 0.00 | 32 | 1014.4 |
| 20260502211505 | 60 | 255 | 3.0 | 8.0 | 0.00 | 0.00 | 0.00 | 32 | 1014.5 |
| 20260502210503 | 60 | 324 | 3.0 | 10.0 | 0.00 | 0.00 | 0.00 | 32 | 1014.5 |
| 20260502210003 | 60 | 292 | 5.0 | 10.0 | 0.00 | 0.00 | 0.00 | 34 | 1014.6 |
| 20260502205504 | 59 | 259 | 5.0 | 9.0 | 0.00 | 0.00 | 0.00 | 31 | 1014.6 |
| 20260502204503 | 59 | 253 | 6.0 | 12.0 | 0.00 | 0.00 | 0.00 | 31 | 1014.8 |
| 20260502204003 | 59 | 220 | 3.0 | 10.0 | 0.00 | 0.00 | 0.00 | 32 | 1014.8 |
| 20260502203504 | 59 | 262 | 1.0 | 6.0 | 0.00 | 0.00 | 0.00 | 32 | 1014.9 |
| 20260502203004 | 59 | 274 | 3.0 | 8.0 | 0.00 | 0.00 | 0.00 | 32 | 1015.0 |